Location: Arcusa
(42.3167°N, 0.0833°W)
Time: 17:25:41
(UTC+00:00)

Lacrosse 5 rocket - Pass Details

Date: 25 January 2020
Orbit: 465 x 632 km, 57.0° (Epoch: 19 February)

Event Time Altitude Azimuth Distance (km) Brightness Sun altitude
Exits shadow 06:08:59 - 333° (NNW) 2,113 3.9 -13.3°
Reaches altitude 10° 06:09:27 10° 337° (NNW) 1,993 3.8 -13.3°
Maximum altitude 06:12:22 17° 17° (NNE) 1,587 3.7 -12.7°
Drops below altitude 10° 06:15:13 10° 57° (ENE) 1,943 4.7 -12.2°
Sets 06:18:12 0° 79° (E) 2,810 6.2 -11.7°
